QFA74 YMML-YSSY

Flight info

Callsign QFA74
Flight time 1h 5m
Altitude 35000
Route ML H129 DOSEL Y59 RIVET
Aircraft B738/M-SDE2E3FGHIRWXY/LB1

Departure

Time 2026-05-04 11:01
Airport Melbourne Airport (YMML)

Arrival

Time 2026-05-04 12:07
Airport Sydney Kingsford Smith International Airport (YSSY)
Time Latitude Longitude Altitude Speed Heading
2026-05-04 10:25 -37.66680 144.84897 400 ft 0 kts 82°
2026-05-04 10:39 -37.66680 144.84896 400 ft 2 kts 82°
2026-05-04 10:40 -37.66683 144.84876 400 ft 2 kts 76°
2026-05-04 10:40 -37.66689 144.84856 398 ft 2 kts 64°
2026-05-04 10:40 -37.66697 144.84838 396 ft 2 kts 45°
2026-05-04 10:40 -37.66711 144.84826 397 ft 2 kts 14°
2026-05-04 10:41 -37.66727 144.84825 398 ft 2 kts 347°
2026-05-04 10:41 -37.66730 144.84826 396 ft 0 kts 342°
2026-05-04 10:44 -37.66641 144.84765 400 ft 0 kts 275°
2026-05-04 10:47 -37.66640 144.84747 401 ft 6 kts 271°
2026-05-04 10:47 -37.66646 144.84678 400 ft 12 kts 260°
2026-05-04 10:49 -37.67081 144.84040 382 ft 23 kts 172°
2026-05-04 10:49 -37.67239 144.84067 377 ft 22 kts 172°
2026-05-04 10:50 -37.67391 144.84097 373 ft 22 kts 171°
2026-05-04 10:51 -37.67757 144.84165 364 ft 0 kts 171°
2026-05-04 10:56 -37.67773 144.84168 364 ft 4 kts 171°
2026-05-04 10:56 -37.67789 144.84171 364 ft 1 kts 171°
2026-05-04 10:56 -37.67794 144.84172 363 ft 0 kts 171°
2026-05-04 10:58 -37.67797 144.84173 363 ft 2 kts 171°
2026-05-04 10:58 -37.67827 144.84175 360 ft 7 kts 186°
2026-05-04 10:58 -37.67871 144.84134 358 ft 8 kts 243°
2026-05-04 10:59 -37.67875 144.84112 361 ft 0 kts 262°
2026-05-04 10:59 -37.67876 144.84094 356 ft 8 kts 262°
2026-05-04 10:59 -37.67879 144.83990 358 ft 13 kts 295°
2026-05-04 11:00 -37.67833 144.83954 359 ft 0 kts 351°
2026-05-04 11:01 -37.64202 144.83248 1740 ft 171 kts 349°
2026-05-04 11:02 -37.63028 144.83033 2608 ft 179 kts 348°
2026-05-04 11:02 -37.61708 144.82797 2900 ft 204 kts 348°
2026-05-04 11:05 -37.39670 144.98601 12597 ft 344 kts 48°
2026-05-04 11:06 -37.38296 145.01076 13410 ft 346 kts 48°
2026-05-04 11:06 -37.36909 145.03562 14143 ft 349 kts 47°
2026-05-04 11:06 -37.35502 145.06069 14806 ft 354 kts 47°
2026-05-04 11:06 -37.34070 145.08608 15458 ft 358 kts 47°
2026-05-04 11:08 -37.23537 145.27165 19970 ft 378 kts 45°
2026-05-04 11:10 -37.12718 145.46090 23990 ft 387 kts 44°
2026-05-04 11:12 -37.01498 145.65593 26731 ft 403 kts 45°
2026-05-04 11:12 -36.99853 145.68445 27056 ft 406 kts 45°
2026-05-04 11:12 -36.98195 145.71317 27403 ft 409 kts 45°
2026-05-04 11:12 -36.96526 145.74206 27758 ft 411 kts 45°
2026-05-04 11:13 -36.94851 145.77104 28137 ft 412 kts 45°
2026-05-04 11:13 -36.93185 145.79983 28415 ft 416 kts 45°
2026-05-04 11:13 -36.91485 145.82915 28723 ft 419 kts 45°
2026-05-04 11:13 -36.89774 145.85868 29097 ft 420 kts 45°
2026-05-04 11:14 -36.88061 145.88823 29441 ft 421 kts 45°
2026-05-04 11:14 -36.86332 145.91799 29702 ft 425 kts 45°
2026-05-04 11:14 -36.84592 145.94790 29991 ft 426 kts 45°
2026-05-04 11:16 -36.73446 146.13927 30001 ft 384 kts 43°
2026-05-04 11:16 -36.70201 146.19426 30132 ft 403 kts 44°
2026-05-04 11:17 -36.66815 146.25187 30241 ft 420 kts 44°
2026-05-04 11:19 -36.54281 146.46524 31683 ft 441 kts 44°
2026-05-04 11:19 -36.52463 146.49601 31919 ft 443 kts 44°
2026-05-04 11:19 -36.50637 146.52688 32189 ft 443 kts 44°
2026-05-04 11:19 -36.48813 146.55771 32491 ft 443 kts 44°
2026-05-04 11:20 -36.46987 146.58855 32778 ft 443 kts 44°
2026-05-04 11:20 -36.45178 146.61905 32996 ft 445 kts 44°
2026-05-04 11:20 -36.43311 146.65050 33234 ft 447 kts 44°
2026-05-04 11:20 -36.41492 146.68111 33494 ft 447 kts 44°
2026-05-04 11:22 -36.28481 146.89940 34935 ft 455 kts 44°
2026-05-04 11:22 -36.26599 146.93088 35064 ft 456 kts 44°
2026-05-04 11:23 -36.22797 146.99434 35069 ft 460 kts 45°
2026-05-04 11:25 -36.09461 147.21606 35086 ft 459 kts 45°
2026-05-04 11:25 -36.05661 147.27898 35079 ft 461 kts 45°
2026-05-04 11:27 -35.88263 147.56577 35097 ft 467 kts 44°
2026-05-04 11:28 -35.84353 147.62990 35092 ft 468 kts 44°
2026-05-04 11:28 -35.80426 147.69411 35093 ft 469 kts 44°
2026-05-04 11:29 -35.76490 147.75835 35115 ft 470 kts 44°
2026-05-04 11:29 -35.72543 147.82266 35102 ft 471 kts 44°
2026-05-04 11:33 -35.44747 148.27250 35109 ft 473 kts 44°
2026-05-04 11:33 -35.40747 148.33669 35115 ft 474 kts 44°
2026-05-04 11:34 -35.36727 148.40096 35116 ft 476 kts 44°
2026-05-04 11:34 -35.32697 148.46529 35115 ft 476 kts 44°
2026-05-04 11:35 -35.28659 148.52968 35115 ft 477 kts 44°
2026-05-04 11:35 -35.24616 148.59405 35117 ft 477 kts 44°
2026-05-04 11:36 -35.20568 148.65836 35115 ft 477 kts 44°
2026-05-04 11:36 -35.16522 148.72255 35119 ft 476 kts 44°
2026-05-04 11:37 -35.12618 148.78434 35121 ft 476 kts 44°
2026-05-04 11:37 -35.08569 148.84833 35125 ft 476 kts 44°
2026-05-04 11:38 -35.05207 148.90137 35121 ft 476 kts 44°
2026-05-04 11:38 -35.00496 148.97555 35116 ft 475 kts 44°
2026-05-04 11:39 -34.98468 149.00743 34972 ft 478 kts 44°
2026-05-04 11:39 -34.96412 149.03967 34503 ft 482 kts 43°
2026-05-04 11:40 -34.85026 149.21824 31714 ft 458 kts 43°
2026-05-04 11:41 -34.83079 149.24864 31295 ft 453 kts 43°
2026-05-04 11:41 -34.81152 149.27871 30868 ft 448 kts 43°
2026-05-04 11:41 -34.79239 149.30851 30434 ft 445 kts 43°
2026-05-04 11:41 -34.77343 149.33803 29964 ft 441 kts 43°
2026-05-04 11:42 -34.75465 149.36726 29466 ft 437 kts 43°
2026-05-04 11:42 -34.73668 149.39691 29017 ft 438 kts 49°
2026-05-04 11:42 -34.72168 149.42917 28587 ft 437 kts 53°
2026-05-04 11:42 -34.70761 149.46182 28130 ft 434 kts 53°
2026-05-04 11:43 -34.69387 149.49425 27697 ft 430 kts 53°
2026-05-04 11:43 -34.68024 149.52633 27246 ft 425 kts 53°
2026-05-04 11:43 -34.66662 149.55805 26814 ft 421 kts 53°
2026-05-04 11:43 -34.65306 149.58936 26395 ft 417 kts 53°
2026-05-04 11:44 -34.63954 149.62037 25974 ft 413 kts 53°
2026-05-04 11:44 -34.62609 149.65107 25560 ft 410 kts 53°
2026-05-04 11:44 -34.61276 149.68146 25147 ft 407 kts 53°
2026-05-04 11:44 -34.59950 149.71165 24728 ft 404 kts 52°
2026-05-04 11:45 -34.58634 149.74160 24317 ft 401 kts 53°
2026-05-04 11:45 -34.57327 149.77132 23896 ft 398 kts 52°
2026-05-04 11:45 -34.56024 149.80091 23443 ft 396 kts 53°
2026-05-04 11:45 -34.54729 149.83032 22984 ft 394 kts 53°
2026-05-04 11:46 -34.53445 149.85947 22541 ft 391 kts 53°
2026-05-04 11:46 -34.52171 149.88837 22126 ft 387 kts 53°
2026-05-04 11:46 -34.50905 149.91706 21722 ft 384 kts 53°
2026-05-04 11:46 -34.49650 149.94548 21314 ft 381 kts 53°
2026-05-04 11:47 -34.48405 149.97364 20922 ft 378 kts 53°
2026-05-04 11:47 -34.47168 150.00162 20526 ft 375 kts 53°
2026-05-04 11:47 -34.45939 150.02938 20133 ft 372 kts 53°
2026-05-04 11:47 -34.44723 150.05683 19739 ft 369 kts 53°
2026-05-04 11:48 -34.43512 150.08417 19345 ft 366 kts 54°
2026-05-04 11:48 -34.42310 150.11126 18969 ft 364 kts 54°
2026-05-04 11:48 -34.41114 150.13817 18581 ft 362 kts 54°
2026-05-04 11:48 -34.39922 150.16499 18145 ft 361 kts 54°
2026-05-04 11:49 -34.38738 150.19162 17735 ft 358 kts 54°
2026-05-04 11:49 -34.37562 150.21807 17326 ft 356 kts 54°
2026-05-04 11:49 -34.36393 150.24432 16927 ft 353 kts 54°
2026-05-04 11:49 -34.35233 150.27034 16545 ft 350 kts 54°
2026-05-04 11:50 -34.34079 150.29623 16164 ft 348 kts 54°
2026-05-04 11:50 -34.32934 150.32188 15805 ft 346 kts 54°
2026-05-04 11:50 -34.31807 150.34710 15419 ft 344 kts 54°
2026-05-04 11:50 -34.30672 150.37250 15042 ft 342 kts 54°
2026-05-04 11:51 -34.29542 150.39776 14676 ft 340 kts 54°
2026-05-04 11:51 -34.28417 150.42292 14306 ft 339 kts 54°
2026-05-04 11:51 -34.27299 150.44789 13959 ft 337 kts 54°
2026-05-04 11:51 -34.26190 150.47268 13583 ft 335 kts 55°
2026-05-04 11:52 -34.25087 150.49731 13196 ft 332 kts 55°
2026-05-04 11:52 -34.23989 150.52181 12824 ft 330 kts 55°
2026-05-04 11:52 -34.22900 150.54613 12445 ft 328 kts 55°
2026-05-04 11:52 -34.21818 150.57024 12088 ft 325 kts 55°
2026-05-04 11:53 -34.20755 150.59395 11726 ft 323 kts 56°
2026-05-04 11:53 -34.19688 150.61770 11375 ft 320 kts 56°
2026-05-04 11:53 -34.18629 150.64127 11016 ft 318 kts 56°
2026-05-04 11:53 -34.17573 150.66474 10664 ft 317 kts 56°
2026-05-04 11:55 -34.10776 150.81561 9141 ft 281 kts 56°
2026-05-04 11:55 -34.09846 150.83622 8876 ft 278 kts 56°
2026-05-04 11:56 -34.08935 150.85644 8653 ft 278 kts 56°
2026-05-04 11:56 -34.08078 150.87549 8439 ft 280 kts 56°
2026-05-04 11:56 -34.07146 150.89616 8199 ft 281 kts 56°
2026-05-04 11:56 -34.06229 150.91655 7966 ft 280 kts 56°
2026-05-04 11:57 -34.05478 150.93323 7772 ft 279 kts 56°
2026-05-04 11:57 -34.04574 150.95328 7549 ft 278 kts 56°
2026-05-04 11:57 -34.03652 150.97377 7316 ft 278 kts 58°
2026-05-04 11:57 -34.03159 150.99647 7065 ft 287 kts 87°
2026-05-04 11:58 -34.03628 151.01986 6828 ft 292 kts 118°
2026-05-04 11:58 -34.04871 151.03909 6624 ft 291 kts 134°
2026-05-04 11:58 -34.06277 151.05661 6363 ft 292 kts 135°
2026-05-04 11:58 -34.07769 151.07308 6094 ft 289 kts 150°
2026-05-04 11:59 -34.09584 151.08201 6021 ft 278 kts 171°
2026-05-04 11:59 -34.11457 151.08675 5967 ft 271 kts 173°
2026-05-04 11:59 -34.13341 151.09136 5473 ft 279 kts 172°
2026-05-04 11:59 -34.15234 151.09612 5172 ft 277 kts 172°
2026-05-04 12:00 -34.17095 151.10089 4930 ft 270 kts 172°
2026-05-04 12:00 -34.18927 151.10563 4691 ft 268 kts 172°
2026-05-04 12:00 -34.20749 151.11021 4472 ft 270 kts 167°
2026-05-04 12:00 -34.22390 151.12120 4340 ft 272 kts 137°
2026-05-04 12:01 -34.23431 151.13999 4078 ft 271 kts 107°
2026-05-04 12:01 -34.23603 151.16178 3966 ft 253 kts 76°
2026-05-04 12:02 -34.15654 151.21453 2984 ft 219 kts
2026-05-04 12:03 -34.14213 151.21826 2975 ft 204 kts
2026-05-04 12:03 -34.12849 151.22040 2971 ft 191 kts 360°
2026-05-04 12:03 -34.11552 151.21928 2943 ft 187 kts 346°
2026-05-04 12:03 -34.10270 151.21651 2751 ft 186 kts 346°
2026-05-04 12:04 -34.09008 151.21341 2524 ft 184 kts 345°
2026-05-04 12:04 -34.07769 151.21022 2293 ft 180 kts 345°
2026-05-04 12:04 -34.06554 151.20705 2050 ft 177 kts 345°
2026-05-04 12:04 -34.05370 151.20396 1817 ft 170 kts 346°
2026-05-04 12:05 -34.04269 151.20110 1587 ft 155 kts 346°
2026-05-04 12:05 -34.03260 151.19846 1383 ft 142 kts 346°
2026-05-04 12:05 -34.02293 151.19594 1195 ft 142 kts 347°
2026-05-04 12:05 -34.01323 151.19341 1025 ft 145 kts 346°
2026-05-04 12:06 -34.00318 151.19078 834 ft 150 kts 347°
2026-05-04 12:06 -33.99286 151.18813 640 ft 149 kts 349°
2026-05-04 12:06 -33.98290 151.18553 430 ft 146 kts 349°
2026-05-04 12:06 -33.97294 151.18292 237 ft 147 kts 349°
2026-05-04 12:07 -33.96303 151.18038 59 ft 144 kts 348°
2026-05-04 12:07 -33.95378 151.17794 29 ft 120 kts 346°
2026-05-04 12:07 -33.94858 151.17658 28 ft 37 kts 350°
2026-05-04 12:07 -33.94631 151.17649 28 ft 19 kts
2026-05-04 12:08 -33.94536 151.17674 29 ft 9 kts 13°
2026-05-04 12:08 -33.94471 151.17698 29 ft 12 kts 18°
2026-05-04 12:08 -33.94379 151.17728 29 ft 15 kts
2026-05-04 12:08 -33.94273 151.17714 29 ft 16 kts 344°
2026-05-04 12:09 -33.94170 151.17681 28 ft 15 kts 346°
2026-05-04 12:09 -33.94066 151.17653 27 ft 18 kts 348°
2026-05-04 12:09 -33.93925 151.17616 28 ft 23 kts 347°
2026-05-04 12:09 -33.93751 151.17570 28 ft 28 kts 348°
2026-05-04 12:10 -33.93550 151.17517 28 ft 29 kts 348°
2026-05-04 12:10 -33.93388 151.17504 29 ft 22 kts 357°
2026-05-04 12:10 -33.93233 151.17464 29 ft 24 kts 347°
2026-05-04 12:10 -33.93085 151.17456 29 ft 18 kts 48°
2026-05-04 12:11 -33.93012 151.17567 29 ft 17 kts 57°
2026-05-04 12:11 -33.93028 151.17696 29 ft 16 kts 117°
2026-05-04 12:11 -33.93062 151.17808 29 ft 14 kts 102°
2026-05-04 12:11 -33.93084 151.17870 29 ft 6 kts 163°
2026-05-04 12:12 -33.93131 151.17861 29 ft 8 kts 196°
2026-05-04 12:12 -33.93144 151.17857 29 ft 1 kts 191°
2026-05-04 12:12 -33.93147 151.17857 29 ft 0 kts 191°